Location: Lecco
(45.8566°N, 9.3977°E)
Time: 15:01:47
(UTC+02:00)

Altair - All Passes

Search period start: 18 July 2019 00:00
Search period end: 28 July 2019 00:00
Orbit: 1501 x 1683 km, 47.2° (Epoch: 17 July)

Date Brightness Start Highest point End Pass type
(mag) Time Alt. Az. Time Alt. Az. Time Alt. Az.
18 Jul - 11:45:29 10° SSE 11:50:45 17° SE 11:56:01 10° E daylight
18 Jul - 13:44:58 10° SW 13:53:44 53° SE 14:02:36 10° ENE daylight
18 Jul - 15:48:52 10° WSW 15:58:05 88° NNW 16:07:31 10° E daylight
18 Jul - 17:53:48 10° WNW 18:03:05 88° NNE 18:12:41 10° ESE daylight
18 Jul - 19:58:32 10° WNW 20:07:30 53° SW 20:16:47 10° SE daylight
18 Jul - 22:04:57 10° W 22:10:38 18° SW 22:16:27 10° SSW visible
19 Jul - 11:21:08 10° SSE 11:25:46 15° SE 11:30:23 10° E daylight
19 Jul - 13:19:58 10° SW 13:28:39 50° SE 13:37:24 10° ENE daylight
19 Jul - 15:23:42 10° WSW 15:32:54 89° NNW 15:42:19 10° ENE daylight
19 Jul - 17:28:38 10° W 17:37:54 87° N 17:47:28 10° E daylight
19 Jul - 19:33:22 10° WNW 19:42:23 56° SSW 19:51:43 10° SE daylight
19 Jul - 21:39:27 10° W 21:45:37 20° SW 21:51:55 10° S visible
20 Jul - 10:56:59 10° SSE 11:00:47 13° ESE 11:04:34 10° E daylight
20 Jul - 12:55:00 10° SSW 13:03:35 47° SE 13:12:12 10° ENE daylight
20 Jul - 14:58:33 10° WSW 15:07:44 89° SSE 15:17:07 10° ENE daylight
20 Jul - 17:03:27 10° W 17:12:43 85° N 17:22:14 10° E daylight
20 Jul - 19:08:12 10° WNW 19:17:16 60° SSW 19:26:38 10° SE daylight
20 Jul - 21:14:02 10° W 21:20:35 22° SW 21:27:19 10° S daylight
21 Jul - 10:33:10 10° SE 10:35:48 11° ESE 10:38:26 10° ESE daylight
21 Jul - 12:30:02 10° SSW 12:38:31 44° SE 12:47:00 10° ENE daylight
21 Jul - 14:33:23 10° WSW 14:42:35 86° SSE 14:51:55 10° ENE daylight
21 Jul - 16:38:17 10° W 16:47:32 84° N 16:57:01 10° E daylight
21 Jul - 18:43:02 10° WNW 18:52:09 63° SSW 19:01:33 10° SE daylight
21 Jul - 20:48:39 10° W 20:55:34 24° SW 21:02:39 10° S daylight
22 Jul - 12:05:06 10° SSW 12:13:27 41° SE 12:21:47 10° ENE daylight
22 Jul - 14:08:14 10° WSW 14:17:26 84° SSE 14:26:44 10° ENE daylight
22 Jul - 16:13:07 10° W 16:22:21 83° N 16:31:48 10° E daylight
22 Jul - 18:17:53 10° WNW 18:27:01 66° SSW 18:36:25 10° SE daylight
22 Jul - 20:23:18 10° W 20:30:32 26° SW 20:37:56 10° S daylight
23 Jul - 11:40:12 10° SSW 11:48:23 38° SE 11:56:33 10° ENE daylight
23 Jul - 13:43:06 10° WSW 13:52:17 81° SSE 14:01:33 10° ENE daylight
23 Jul - 15:47:56 10° W 15:57:10 83° N 16:06:35 10° E daylight
23 Jul - 17:52:44 10° WNW 18:01:53 69° SSW 18:11:18 10° SE daylight
23 Jul - 19:58:00 10° W 20:05:28 28° SW 20:13:10 10° S daylight
24 Jul - 11:15:19 10° SSW 11:23:20 35° SE 11:31:19 10° ENE daylight
24 Jul - 13:17:58 10° WSW 13:27:08 79° SSE 13:36:22 10° ENE daylight
24 Jul - 15:22:45 10° W 15:31:58 82° N 15:41:22 10° E daylight
24 Jul - 17:27:35 10° WNW 17:36:45 72° SSW 17:46:10 10° SE daylight
24 Jul - 19:32:43 10° WNW 19:40:26 30° SW 19:48:21 10° S daylight
25 Jul - 10:50:28 10° SSW 10:58:18 32° SE 11:06:04 10° ENE daylight
25 Jul - 12:52:50 10° WSW 13:02:00 76° SSE 13:11:11 10° ENE daylight
25 Jul - 14:57:34 10° W 15:06:47 82° N 15:16:09 10° E daylight
25 Jul - 17:02:25 10° WNW 17:11:36 76° SSW 17:21:02 10° ESE daylight
25 Jul - 19:07:28 10° WNW 19:15:22 33° SW 19:23:30 10° SSE daylight
26 Jul - 10:25:38 10° S 10:33:15 30° SE 10:40:48 10° ENE daylight
26 Jul - 12:27:43 10° WSW 12:36:52 72° SSE 12:46:01 10° ENE daylight
26 Jul - 14:32:23 10° W 14:41:36 82° N 14:50:57 10° E daylight
26 Jul - 16:37:16 10° WNW 16:46:27 78° SSW 16:55:52 10° ESE daylight
26 Jul - 18:42:13 10° WNW 18:50:19 35° SW 18:58:37 10° SSE daylight
27 Jul - 10:00:51 10° S 10:08:13 27° SE 10:15:30 10° E daylight
27 Jul - 12:02:37 10° SW 12:11:44 69° SSE 12:20:51 10° ENE daylight
27 Jul - 14:07:12 10° W 14:16:25 83° N 14:25:44 10° E daylight
27 Jul - 16:12:06 10° WNW 16:21:18 81° SSW 16:30:42 10° ESE daylight
27 Jul - 18:17:01 10° WNW 18:25:15 38° SW 18:33:42 10° SSE daylight
